星链-34513 (STARLINK-34513)

导读 | 星芒AI

STARLINK-34513 是 SpaceX Starlink 卫星互联网项目中的一颗低轨卫星,属于 Starlink 群体部署的一部分。该卫星由 Falcon 9 火箭发射入轨,旨在为全球用户提供高速互联网服务。它运行在约 550 公里的轨道高度,配备先进通信设备,支持宽带连接。Starlink 项目致力于改善偏远地区的网络覆盖,提升全球互联网接入能力。

基本信息
目录编号:
64609
目录名称:
STARLINK-34513
国际标识:
2025-137R
轨道中心:
EARTH
卫星名称:
星链-34513
卫星全名:
星链-34513 (STARLINK-34513)
卫星状态:
在轨 (已飞行127 天)
发射日期:
2025-06-25 UTC
国别 :
美国 (US)
星等 :
--
轨道信息
数据来源 国际轨道数据
星历时间: 2025-10-30T09:00:30+0800
18小时前
查看轨道信息
半长轴: 6819.593km
偏心率: 0.0010151
轨道倾角: 53.161°
近地点辐角 228.368°
升交点赤经 226.951°
平近点角 131.646°
近地点: 434.535km
远地点: 448.381km
周期: 93.411分钟
每日圈数: 15.415768
详细信息
固有亮度:
5
最大亮度:
2.5
卫星平台:
Starlink V1.0
覆盖范围:
全球
运营商:
太空探索技术公司
运营商所在国:
美国
制造商(研发单位):
太空探索技术公司
制造商所在国:
美国
使用方式:
暂无
卫星简介
Starlink 计划是 SpaceX 推出的全球卫星互联网项目,通过发射低轨道卫星,为全球尤其是偏远地区提供高速、低延迟的互联网服务。自 2019 年起,Starlink 已部署数千颗卫星,旨在缩小全球数字鸿沟,推动互联网普及。该项目还为军事、航空等行业提供通信支持,带来广泛经济效益。
2D轨道图
3D轨道图
轨道高度分析图
轨道倾角分析图
轨道综合分析图
查看轨道综合分析图